TimePST,TemperatureF,Dew PointF,Humidity,Sea Level PressureIn,VisibilityMPH,Wind Direction,Wind SpeedMPH,Gust SpeedMPH,PrecipitationIn,Events,Conditions,WindDirDegrees,DateUTC
12:53 AM,18.0,14.0,84,30.46,10.0,Calm,Calm,-,N/A,,Clear,0,2013-01-13 08:53:00
1:53 AM,19.9,16.0,85,30.46,10.0,East,4.6,-,N/A,,Overcast,90,2013-01-13 09:53:00
2:53 AM,19.9,17.1,89,30.46,10.0,ENE,4.6,-,N/A,,Overcast,70,2013-01-13 10:53:00
3:53 AM,21.0,18.0,88,30.46,10.0,Calm,Calm,-,N/A,,Overcast,0,2013-01-13 11:53:00
4:53 AM,21.9,18.0,85,30.45,10.0,Calm,Calm,-,N/A,,Overcast,0,2013-01-13 12:53:00
5:53 AM,21.9,19.9,92,30.45,10.0,Calm,Calm,-,N/A,,Overcast,0,2013-01-13 13:53:00
6:42 AM,23.0,21.2,93,30.45,10.0,North,3.5,-,N/A,,Overcast,360,2013-01-13 14:42:00
6:53 AM,23.0,21.0,92,30.48,10.0,Calm,Calm,-,N/A,,Overcast,0,2013-01-13 14:53:00
7:26 AM,21.2,19.4,93,30.48,10.0,NW,4.6,-,N/A,,Overcast,310,2013-01-13 15:26:00
7:53 AM,21.9,19.9,92,30.51,10.0,West,5.8,-,N/A,,Overcast,280,2013-01-13 15:53:00
8:53 AM,21.9,19.0,89,30.52,10.0,WNW,4.6,-,N/A,,Scattered Clouds,300,2013-01-13 16:53:00
9:53 AM,24.1,21.0,88,30.53,10.0,NNW,4.6,-,N/A,,Scattered Clouds,330,2013-01-13 17:53:00
10:53 AM,27.0,21.9,81,30.53,10.0,WNW,3.5,-,N/A,,Mostly Cloudy,300,2013-01-13 18:53:00
11:13 AM,26.6,21.2,80,30.50,10.0,NW,3.5,-,N/A,,Scattered Clouds,320,2013-01-13 19:13:00
11:53 AM,28.0,19.9,72,30.51,10.0,WNW,3.5,-,N/A,,Partly Cloudy,290,2013-01-13 19:53:00
12:53 PM,28.9,19.9,69,30.50,10.0,Calm,Calm,-,N/A,,Scattered Clouds,0,2013-01-13 20:53:00
1:53 PM,30.0,19.0,64,30.51,10.0,Calm,Calm,-,N/A,,Clear,0,2013-01-13 21:53:00
2:53 PM,30.0,19.0,64,30.51,10.0,Calm,Calm,-,N/A,,Clear,0,2013-01-13 22:53:00
3:53 PM,30.0,17.1,59,30.51,10.0,Calm,Calm,-,N/A,,Clear,0,2013-01-13 23:53:00
4:53 PM,28.0,18.0,66,30.51,10.0,Calm,Calm,-,N/A,,Partly Cloudy,0,2013-01-14 00:53:00
5:53 PM,27.0,19.0,72,30.52,10.0,Calm,Calm,-,N/A,,Clear,0,2013-01-14 01:53:00
6:53 PM,24.1,19.0,81,30.50,10.0,Calm,Calm,-,N/A,,Clear,0,2013-01-14 02:53:00
7:53 PM,26.1,19.9,78,30.51,10.0,SSE,3.5,-,N/A,,Clear,160,2013-01-14 03:53:00
8:53 PM,23.0,19.0,85,30.51,10.0,Calm,Calm,-,N/A,,Clear,0,2013-01-14 04:53:00
9:53 PM,21.9,19.0,89,30.50,10.0,Calm,Calm,-,N/A,,Clear,0,2013-01-14 05:53:00
10:53 PM,21.0,19.0,92,30.50,10.0,Calm,Calm,-,N/A,,Clear,0,2013-01-14 06:53:00
11:53 PM,23.0,19.9,88,30.50,10.0,Calm,Calm,-,N/A,,Mostly Cloudy,0,2013-01-14 07:53:00